www.pogodaiklimat.ru

АРХИВ ПОГОДЫ в Гаррисберге

Время (UTC), дата Ветер
(напр.,м/с)
 
Видим.   Явления Облачность Т
(С)
Тd
(С)
f
(%)
Тe
(С)
Тes
(С)
Комфортность

P
(гПа)

Po
(гПа)
Тmin
(С)
Tmax
(С)
R
(мм)
SD
(см)
10:56 21.05 С  16 км    5/5 1350 м  +14.4  +3.9  49  +13  +13    1016.2  1004.7  +13.9  +17.8     
11:56 21.05 С  16 км    5/5 1320 м  +13.9  +3.9  51  +12  +12    1017.2  1005.7         
12:56 21.05 СЗ  16 км    8/0 5400 м
[средняя] 
+15.6  +3.9  46  +14  +15    1017.6  1006.1         
13:56 21.05 СЗ  7
{9} 
16 км    8/0 5400 м
[средняя] 
+16.1  +3.9  44  +15  +16    1017.6  1006.1         
14:56 21.05 СЗ  5
{12} 
16 км    8/0 4500 м
[средняя] 
+17.2  +3.9  41  +16  +19    1017.4  1005.7         
15:56 21.05 СЗ  16 км    5/0 4500 м
[средняя] 
+18.3  +5.0  41  +18  +22    1017.3  1005.7         
16:56 21.05 СЗ  16 км    5/0 4500 м
[средняя] 
+19.4  +6.1  42  +20  +27    1017.0  1005.4  +13.3  +19.4     
17:56 21.05 З  16 км    5/0 4500 м
[средняя] 
+20.0  +6.1  40  +20  +24    1016.6  1005.1         
18:56 21.05 СЗ  6
{9} 
16 км    8/0 4500 м
[средняя] 
+20.0  +5.6  39  +20  +22    1016.6  1005.1         
19:56 21.05 СЗ  16 км    8/0 4500 м
[средняя] 
+20.6  +5.6  37  +21  +23  комфорт  1016.9  1005.4         
20:56 21.05 З  16 км    5/0 6000 м
[средняя] 
+21.1  +6.1  38  +22  +23  комфорт  1017.0  1005.4         
21:56 21.05 СЗ  16 км    5/0 6000 м
[средняя] 
+20.6  +6.7  40  +22  +23  комфорт  1017.2  1005.7         
22:56 21.05 З  16 км    2/0 6000 м
[средняя] 
+19.4  +8.3  49  +21  +22  комфорт  1017.8  1006.4  +19.4  +21.1     
23:56 21.05 СЗ  16 км    2/0 6000 м
[средняя] 
+18.3  +7.2  48  +19  +19    1018.6  1007.1         
00:56 22.05 СЗ  16 км    ясно  +15.0  +10.0  72  +15  +15    1019.6  1008.1         
01:56 22.05 СЗ  16 км    5/0 7500 м
[верхняя] 
+13.9  +10.0  77  +14  +14    1020.1  1008.8         
02:56 22.05 СЗ  16 км    5/0 7500 м
[верхняя] 
+14.4  +4.4  51  +15  +15    1020.9  1009.4         
03:56 22.05 З  16 км    2/0 7500 м
[верхняя] 
+13.3  +6.1  62  +13  +13    1021.4  1009.8         
04:56 22.05   16 км    2/0 7500 м
[верхняя] 
+11.1  +5.6  69  +11  +11    1021.9  1010.4  +11.1  +19.4     
05:56 22.05 С  16 км    2/0 7500 м
[верхняя] 
+10.6  +6.7  77  +10  +10    1022.4  1010.8         
06:56 22.05 С  16 км    2/0 7500 м
[верхняя] 
+10.0  +6.1  77  +9  +9    1022.7  1011.1         
07:56 22.05   16 км    2/0 7500 м
[верхняя] 
+8.9  +6.1  83  +8  +8    1022.7  1011.1         
08:56 22.05 С  16 км    ясно  +9.4  +6.1  80  +7  +7    1023.4  1011.8         
09:56 22.05 СЗ  16 км    5/0 3000 м
[средняя] 
+11.7  +7.2  74  +10  +10    1024.3  1012.8         
10:56 22.05 СЗ  16 км    5/0 3000 м
[средняя] 
+12.8  +7.2  69  +11  +12    1025.0  1013.4  +8.9  +12.8     
11:56 22.05 СЗ  16 км    8/0 3000 м
[средняя] 
+14.4  +7.2  62  +13  +14    1025.3  1013.8         
12:56 22.05 СЗ  16 км    8/0 6000 м
[средняя] 
+16.7  +6.1  50  +17  +20    1025.3  1013.8         
13:56 22.05 Ю  16 км    8/0 6000 м
[средняя] 
+18.9  +5.6  42  +20  +26    1025.0  1013.4         
14:56 22.05   16 км    8/0 3600 м
[средняя] 
+20.6  +6.1  39  +21  +30  комфорт  1025.3  1013.8         
15:56 22.05 ЮВ  16 км    8/0 2700 м
[средняя] 
+20.0  +4.4  36  +21  +30  комфорт  1025.0  1013.4         
16:56 22.05 нст  16 км    10/0 2700 м
[средняя] 
+21.7  +6.1  36  +22  +29  комфорт  1024.2  1012.4  +12.8  +21.7     
17:56 22.05 ЮВ  16 км    10/0 2700 м
[средняя верхняя] 
+21.7  +6.1  36  +22  +29  комфорт  1023.7  1012.1         
18:56 22.05 нст  16 км    8/0 5100 м
[средняя верхняя] 
+22.2  +7.8  40  +23  +36  комфорт  1023.5  1011.8         
19:56 22.05 ЮВ  16 км    8/0 6000 м
[средняя верхняя] 
+21.7  +7.8  41  +23  +33  комфорт  1022.8  1011.1         
20:56 22.05 нст  16 км    8/0 6000 м
[средняя верхняя] 
+22.8  +7.8  38  +24  +29  комфорт  1022.6  1011.1         
21:56 22.05 ЮЗ  16 км    8/0 4500 м
[средняя верхняя] 
+21.1  +8.9  46  +22  +25  комфорт  1022.3  1010.8         
22:56 22.05 нст  16 км    8/0 3000 м
[средняя верхняя] 
+20.6  +7.8  44  +22  +23  комфорт  1022.6  1011.1  +19.4  +23.3     
23:56 22.05 Ю  16 км    8/0 3300 м
[средняя верхняя] 
+19.4  +8.9  51  +20  +21    1023.2  1011.4         
00:56 23.05 ЮВ  16 км    10/0 2400 м
[средняя] 
+18.9  +8.9  52  +20  +20    1023.3  1011.8         
01:56 23.05 Ю  16 км    8/0 3600 м
[средняя] 
+18.9  +8.3  50  +20  +20    1023.0  1011.4         
02:56 23.05 Ю  16 км    10/0 4500 м
[средняя верхняя] 
+18.9  +7.2  47  +19  +19    1022.7  1011.1         
03:56 23.05 ЮВ  16 км    10/0 3300 м
[средняя] 
+17.8  +8.3  54  +18  +18    1022.3  1010.8         
04:56 23.05 Ю  16 км    10/0 3300 м
[средняя] 
+17.8  +8.3  54  +19  +19    1021.9  1010.4  +17.8  +20.6     
05:56 23.05 нст  16 км    10/0 3000 м
[средняя] 
+17.8  +8.9  56  +19  +19    1021.2  1009.8         
06:56 23.05 Ю  16 км    8/0 2850 м
[средняя] 
+17.2  +9.4  60  +17  +17    1020.6  1009.1         
07:56 23.05   16 км    8/0 2700 м
[средняя] 
+17.2  +10.0  63  +17  +17    1020.6  1009.1         
08:56 23.05 В  16 км    8/0 3000 м
[средняя] 
+17.2  +10.0  63  +17  +17    1020.9  1009.4         
09:56 23.05 Ю  16 км    10/0 2550 м
[средняя] 
+17.2  +11.1  67  +17  +17    1021.1  1009.8         

 

Местоположение метеостанции Harrisburg International Airport: широта 40.1936 долгота -76.7633 высота над уровнем моря 95 м.

В архиве по умолчанию представлена погода в Гаррисберге за последние 1-2 суток. Обновление информации о фактической погоде в базе происходит ежечасно! Архивные данные за месяц целиком и за предыдущие месяцы Вы можете получить, выбрав интересующий диапазон дат из раскрывающегося списка и нажав кнопку "Ввод!".

Внимание! Архив погоды МЕТАР в базе сайта в настоящее время начинается c 1 января 2011 г. Нет смысла пытаться выбрать более раннюю дату.

Внимание! Время в таблицах - всемирное. Для получения местного времени необходимо прибавить поправку, которая в Гаррисберге равна -5 ч.

Ветер - указаны скорость ветра в м/с и направление, откуда дует ветер: С - северный, СВ - северо-восточный, В - восточный, ЮВ - юго-восточный, Ю - южный, ЮЗ - юго-западный, З - западный, СЗ - северо-западный.
Видимость - горизонтальная дальность видимости в метрах или километрах. При видимости от 1 до 10 км при отсутствии осадков обычно наблюдается дымка, при ухудшении видимости до 1 км и менее - туман. В сухую погоду видимость может ухудшаться дымом, пылью или мглою.
Атмосферные явления - указаны явления, наблюдавшиеся в указанный момент времени.
Облачность - указаны через наклонную черту верхняя и нижняя облачность в баллах и высота нижней границы облаков в метрах. Внимание: облачность, как и прочие метеорологические величины в США измеряются автоматическими метеостанциями. Указанные значения в баллах носят условный характер и показывают процент времени, в течение которого, в среднем, лазерный луч высотомера отражался от облаков обратно.
T - Температура воздуха - температура, измеренная на высоте 2 м над землей.
Td - Температура точки росы - температура, при понижении до которой содержащийся в воздухе водяной пар достигнет насыщения.
f - Относительная влажность воздуха - влажноcть воздуха, измеренная на высоте 2 м над землей.
Te - Эффективная температура - температура, которую ощущает одетый по сезону человек в тени. Характеристика душности погоды. При расчете учитывается влияние влажности воздуха и скорости ветра на теплоощущения человека.
Tes - Эффективная температура на солнце - температура, которую ощущает человек, с поправкой на солнечный нагрев. Характеристика знойности погоды. Зависит от высоты солнца над горизонтом, облачности и скорости ветра. Ночью, в пасмурную погоду, а также при ветре 12 м/с и более поправка равна нулю.
P - Атмосферное давление - приведенное к уровню моря атмосферное давление.
Po - Атмосферное давление - измеренное на уровне метеостанции атмосферное давление.
Tmin - Минимальная температура - минимум температуры воздуха на высоте 2 м над землей.
Tmax - Максимальная температура - максимум температуры воздуха на высоте 2 м над землей.
R - Количество осадков - Количество выпавших осадков за 3 или 6 часов, мм.
SD - Снежный покров - Высота снежного покрова, см.